Flag for Japan Weather past 2 weeks in Fukushima, Japan

Now
89 °F

Hot.


Feels Like: 97 °F
Forecast: 71 / 92 °F
Wind: 7 mph from North

Location: Wakamatsu

Current Time: Aug 21, 2014 at 2:29:18 PM

Latest Report: Aug 21, 2014 at 1:00 PM


Visibility: 13 mi

Pressure: 29.87 "Hg

Humidity: 60%

Dew point: 73 °F

Location of FukushimaLocation

Historic Weather in Fukushima — Graph

°F

Fukushima temperature yesterday

Maximum temperature yesterday: 92 °F (at 2:00 PM)
Minimum temperature yesterday: 74 °F (at 5:00 AM)
Average temperature yesterday: 82 °F

Past Weeks' High & Low Weather Summary

 TemperatureHumidityPressure
High95 °F (Aug 6, 2:00 PM)99% (Aug 13, 3:00 AM)30.01 "Hg (Aug 13, 3:00 AM)
Low64 °F (Aug 13, 2:00 AM)49% (Aug 6, 1:00 PM)29.29 "Hg (Aug 10, 6:00 PM)
Average78 °F82%29.80 "Hg
* Reported Aug 6 1:00 PM — Aug 21 1:00 PM, Fukushima, Weather by CustomWeather, © 2014

Note: Actual official high and low records may vary slightly from our data, if they occured in-between our weather recording intervals... More about our weather records

Advertising

Fukushima weather history for previous 24 hours

 ConditionsComfort  
Time TempWeatherWind HumidityBarometerVisibility
1:00 PM
Aug 21
89 °FHot.7 mph60%29.87 "Hg12 mi
12:00 PM87 °FWarm.5 mph67%29.89 "Hg12 mi
11:00 AM85 °FWarm.5 mph70%29.91 "Hg12 mi
10:00 AM82 °FWarm.5 mph73%29.93 "Hg12 mi
9:00 AM82 °FWarm.3 mph75%29.93 "Hg12 mi
8:00 AM78 °FWarm.3 mph84%29.95 "Hg12 mi
7:00 AM75 °FMild.1 mph91%29.96 "Hg12 mi
6:00 AM76 °FMild.2 mph88%29.95 "Hg12 mi
5:00 AM73 °FMild.2 mph94%29.94 "Hg10 mi
4:00 AM74 °FMild.2 mph92%29.93 "Hg12 mi
3:00 AM75 °FMild.1 mph90%29.93 "Hg12 mi
2:00 AM75 °FMild.2 mph90%29.93 "Hg12 mi
1:00 AM76 °FMild.2 mph89%29.94 "Hg12 mi
12:00 AM76 °FMild.2 mph89%29.94 "Hg12 mi
11:00 PM
Aug 20
77 °FWarm.5 mph88%29.95 "Hg12 mi
10:00 PM79 °FWarm.2 mph83%29.94 "Hg12 mi
9:00 PM80 °FWarm.2 mph79%29.96 "Hg12 mi
8:00 PM82 °FWarm.3 mph74%29.94 "Hg12 mi
7:00 PM82 °FWarm.6 mph73%29.93 "Hg12 mi
6:00 PM85 °FWarm.9 mph67%29.91 "Hg12 mi
5:00 PM87 °FWarm.10 mph61%29.89 "Hg12 mi
4:00 PM89 °FHot.12 mph58%29.88 "Hg12 mi
3:00 PM92 °FHot.10 mph56%29.87 "Hg12 mi
2:00 PM92 °FHot.9 mph56%29.87 "Hg12 mi
Weather by CustomWeather, © 2014

See weather overviewHow to use our weather pages